TimeCST,TemperatureF,Dew PointF,Humidity,Sea Level PressureIn,VisibilityMPH,Wind Direction,Wind SpeedMPH,Gust SpeedMPH,PrecipitationIn,Events,Conditions,WindDirDegrees,DateUTC
12:53 AM,35.1,30.9,85,30.32,10.0,Calm,Calm,-,N/A,,Clear,0,2012-11-15 06:53:00
1:53 AM,33.1,30.0,89,30.32,10.0,Calm,Calm,-,N/A,,Clear,0,2012-11-15 07:53:00
2:53 AM,33.1,30.0,89,30.32,10.0,Calm,Calm,-,N/A,,Clear,0,2012-11-15 08:53:00
3:53 AM,32.0,28.9,88,30.32,10.0,NNW,4.6,-,N/A,,Clear,330,2012-11-15 09:53:00
4:53 AM,32.0,30.0,92,30.32,10.0,Variable,3.5,-,N/A,,Clear,0,2012-11-15 10:53:00
5:53 AM,30.9,28.9,92,30.33,10.0,Calm,Calm,-,N/A,,Clear,0,2012-11-15 11:53:00
6:53 AM,30.0,28.0,92,30.34,8.0,Calm,Calm,-,N/A,,Clear,0,2012-11-15 12:53:00
7:53 AM,37.0,33.1,86,30.36,10.0,Variable,3.5,-,N/A,,Clear,0,2012-11-15 13:53:00
8:53 AM,44.1,35.1,71,30.37,10.0,Variable,3.5,-,N/A,,Clear,0,2012-11-15 14:53:00
9:53 AM,48.9,35.1,59,30.38,10.0,North,6.9,-,N/A,,Clear,360,2012-11-15 15:53:00
10:53 AM,52.0,36.0,54,30.37,10.0,NE,6.9,-,N/A,,Clear,50,2012-11-15 16:53:00
11:53 AM,55.0,36.0,49,30.35,10.0,ENE,6.9,-,N/A,,Clear,60,2012-11-15 17:53:00
12:53 PM,55.9,37.0,49,30.32,10.0,NE,8.1,-,N/A,,Clear,50,2012-11-15 18:53:00
1:53 PM,57.0,37.9,49,30.30,10.0,ENE,10.4,-,N/A,,Clear,60,2012-11-15 19:53:00
2:53 PM,57.9,37.9,47,30.28,10.0,Calm,Calm,-,N/A,,Clear,0,2012-11-15 20:53:00
3:53 PM,57.0,39.0,51,30.28,10.0,NE,8.1,-,N/A,,Clear,50,2012-11-15 21:53:00
4:53 PM,54.0,39.9,59,30.30,10.0,NNE,3.5,-,N/A,,Clear,20,2012-11-15 22:53:00
5:53 PM,48.0,39.9,74,30.31,10.0,Calm,Calm,-,N/A,,Clear,0,2012-11-15 23:53:00
6:53 PM,44.1,39.0,82,30.32,10.0,Calm,Calm,-,N/A,,Clear,0,2012-11-16 00:53:00
7:53 PM,42.1,39.0,89,30.33,10.0,North,3.5,-,N/A,,Clear,10,2012-11-16 01:53:00
8:53 PM,41.0,37.0,86,30.34,10.0,Variable,3.5,-,N/A,,Clear,0,2012-11-16 02:53:00
9:53 PM,41.0,37.0,86,30.34,10.0,Calm,Calm,-,N/A,,Clear,0,2012-11-16 03:53:00
10:53 PM,37.9,35.1,89,30.35,10.0,Calm,Calm,-,N/A,,Clear,0,2012-11-16 04:53:00
11:53 PM,35.1,33.1,92,30.35,8.0,NNW,3.5,-,N/A,,Clear,330,2012-11-16 05:53:00